TimeCEST,TemperatureF,Dew PointF,Humidity,Sea Level PressureIn,VisibilityMPH,Wind Direction,Wind SpeedMPH,Gust SpeedMPH,PrecipitationIn,Events,Conditions,WindDirDegrees,DateUTC
12:55 AM,69.8,68.0,94,30.04,-9999.0,Calm,Calm,-,N/A,,Clear,0,2012-10-21 22:55:00
1:55 AM,69.8,66.2,88,30.04,-9999.0,Calm,Calm,-,N/A,,Clear,0,2012-10-21 23:55:00
2:00 AM,70,66,85,30.03,6,Calm,Calm,,,,,,2012-10-22 00:00:00
5:55 AM,68.0,62.6,83,30.04,-9999.0,Calm,Calm,-,N/A,,Clear,0,2012-10-22 03:55:00
7:55 AM,68.0,66.2,94,30.04,-9999.0,Calm,Calm,-,N/A,,Clear,0,2012-10-22 05:55:00
8:00 AM,68,66,90,30.03,6,Calm,Calm,,,,,,2012-10-22 06:00:00
8:55 AM,68.0,66.2,94,30.04,-9999.0,Calm,Calm,-,N/A,,Clear,0,2012-10-22 06:55:00
9:55 AM,68.0,66.2,94,30.04,-9999.0,Calm,Calm,-,N/A,,Clear,0,2012-10-22 07:55:00
11:00 AM,71,68,87,30.03,6,Calm,Calm,,,,,,2012-10-22 09:00:00
11:55 AM,71.6,69.8,94,30.04,-9999.0,Calm,Calm,-,N/A,,Clear,0,2012-10-22 09:55:00
12:55 PM,71.6,68.0,88,30.04,-9999.0,Calm,Calm,-,N/A,,Clear,0,2012-10-22 10:55:00
1:55 PM,75.2,69.8,83,30.01,-9999.0,Calm,Calm,-,N/A,,Clear,0,2012-10-22 11:55:00
2:00 PM,74,70,85,30.01,6,Calm,Calm,,,,,,2012-10-22 12:00:00
2:55 PM,75.2,71.6,89,30.04,-9999.0,Calm,Calm,-,N/A,,Clear,0,2012-10-22 12:55:00
3:55 PM,77.0,73.4,89,30.01,-9999.0,Calm,Calm,-,N/A,,Clear,0,2012-10-22 13:55:00
4:55 PM,78.8,73.4,83,29.98,-9999.0,Calm,Calm,-,N/A,,Clear,0,2012-10-22 14:55:00
5:00 PM,79,74,81,29.96,6,Calm,Calm,,,,,,2012-10-22 15:00:00
5:55 PM,78.8,73.4,83,29.98,-9999.0,Calm,Calm,-,N/A,,Clear,0,2012-10-22 15:55:00
7:55 PM,71.6,71.6,100,29.98,-9999.0,Calm,Calm,-,N/A,,Clear,0,2012-10-22 17:55:00
8:00 PM,72,71,94,29.97,6,Calm,Calm,,,,,,2012-10-22 18:00:00
8:55 PM,71.6,68.0,88,29.98,-9999.0,Calm,Calm,-,N/A,,Clear,0,2012-10-22 18:55:00
9:55 PM,68.0,66.2,94,29.98,-9999.0,Calm,Calm,-,N/A,,Clear,0,2012-10-22 19:55:00
10:55 PM,68.0,66.2,94,30.01,-9999.0,Calm,Calm,-,N/A,,Clear,0,2012-10-22 20:55:00
11:00 PM,68,65,88,30.00,6,Calm,Calm,,,,,,2012-10-22 21:00:00
11:55 PM,68.0,66.2,94,30.01,-9999.0,Calm,Calm,-,N/A,,Clear,0,2012-10-22 21:55:00